Vertical_Velocity
1 0 2 1 -1 -1 -1 -2 -3 -1 1 3 2 1 6 -1 -6 -9 -8 -5 9 4 1 -1 -2 4 -1 0 2 3 2 5 4 -10 -2 -2 -4 -1 -5 1 2 2 5
-3 -2 -3 -1 -1 1 2 -1 -2 -0 3 5 1 -4 -5 -5 5 8 -2 -0 1 2 0 1 0 1 -2 0 -1 -2 0 -1 6 1 -3 -3 1 2 3 -2 -5 2 5
-3 -1 2 -4 -2 -0 -3 -4 3 7 6 2 4 6 2 2 3 9 6 6 5 4 2 -2 -2 -1 -2 -0 -0 -1 -0 0 1 5 -8 1 -4 -3 -1 -1 -2 -1 -7
2 -1 -2 -3 -2 -3 -4 -2 -2 -1 3 1 -0 0 -1 -4 -5 -2 2 -2 1 2 -0 -0 -1 -0 -0 0 1 0 -2 -1 -0 -0 -5 -3 -0 -8 -1 2 -1 0 -4
-2 -4 -3 -2 -2 3 3 2 -3 -3 1 -1 0 0 -1 -1 11 -4 -1 -0 0 -1 -1 0 2 5 -3 -1 -0 -5 -0 -0 3 4 -0 3 -2 -1 3 -1 8 4 -2
-1 -1 -1 -1 -0 -1 -1 -1 1 1 -1 -0 1 1 -1 -1 -6 1 -2 -3 -3 -0 2 1 3 1 3 2 -1 -2 -1 -2 1 5 -1 -5 -7 4 2 1 2 -1 -10
-1 2 0 -0 -3 -1 -1 -1 -1 -1 -1 -1 -1 -1 -2 -2 -6 -2 -2 -0 -2 -2 0 -1 -5 -1 -3 1 7 2 -1 -0 0 -2 -3 -6 -2 -1 3 -1 -3 -2 -4
-0 1 3 -2 -1 -2 -3 -2 -3 -1 0 0 -0 -2 -3 3 -3 -2 -1 -1 -1 -2 -2 -1 -0 -4 4 -1 -2 -3 -3 -1 2 4 -0 -5 1 -2 1 3 3 -0 1
1 -1 2 -1 -2 -4 -1 -2 -0 -1 -0 -1 -2 -2 -1 1 4 -0 -3 -3 -0 -3 -1 2 2 -5 -1 0 1 0 -3 -3 2 3 -6 -6 -6 -7 -6 6 4 9 -7
-3 -4 -2 1 -2 -2 -1 1 0 1 2 1 -4 -2 0 -1 4 -1 -1 -0 -4 -2 1 -1 1 -3 -1 1 3 3 -3 -4 5 -1 6 8 9 -6 -1 2 1 1 3
-1 0 1 1 -1 -1 -0 2 -1 1 2 -4 -3 -4 -1 3 -4 2 1 0 3 -2 -2 -1 -0 9 4 1 2 1 2 -0 -4 -4 -1 -2 -0 -0 4 9 0 3 -1
-0 0 1 1 0 -2 2 -1 -1 1 4 -4 0 -1 1 -1 5 0 -4 3 3 6 -1 2 20 0 -3 -2 -0 0 -1 -1 -1 1 2 -1 -2 -3 -2 4 -0 1 -2
-1 1 2 2 -0 1 1 -2 -5 2 -1 -3 -0 -2 -2 -3 1 -3 -1 1 0 -2 8 8 -4 -4 -2 -1 2 -1 -1 3 2 1 2 3 4 2 4 1 2 1 2
1 2 2 1 -2 -2 -1 -0 1 0 -4 -1 -1 -3 -3 -3 -2 -2 -0 -3 0 4 -4 16 -2 -1 -1 1 3 3 2 3 1 1 1 1 -0 -1 4 4 1 4 2
-0 2 0 -0 -0 -3 0 -3 -2 4 -2 -3 -2 -2 0 -4 -1 2 1 -1 0 0 -1 2 -1 -1 1 5 2 1 2 -0 -1 -0 2 0 1 0 2 0 2 4 3
1 2 1 -1 -0 -3 0 -1 -1 -1 0 -0 1 1 -3 2 -0 1 1 1 -0 -1 2 -1 0 0 2 3 2 0 -1 1 0 2 1 2 2 4 -0 1 -2 1 6
2 0 1 -0 -0 -1 -1 -0 -2 6 -2 -3 -2 -1 -0 -0 -0 -0 -0 0 -0 1 -0 0 1 0 1 1 -1 -0 -1 0 -0 1 1 1 1 3 1 2 3 1 -2
2 -0 -1 -0 -0 -1 -1 -1 -1 -1 -2 3 3 -3 -1 -1 -1 -1 -1 1 0 -1 -0 -0 -0 1 -0 -1 -1 -1 1 2 1 1 1 1 1 -1 1 0 -0 1 6
-0 1 -0 -1 -1 -1 -1 -0 0 -2 -0 1 -1 2 -0 -1 -1 -1 -2 -0 -0 -0 0 -0 -1 -0 -0 -1 -1 -1 3 3 2 2 1 0 -1 0 0 1 -1 -1 0
-1 -1 1 -1 -0 -1 -1 -1 -1 -2 0 -0 -1 -2 -2 0 -2 -2 -2 -1 -1 -1 -1 -0 -1 -0 0 -0 0 0 2 1 -1 1 1 2 1 -0 1 1 -0 -1 -2
-0 0 0 0 -1 -1 -2 -1 -2 -1 -1 -1 -0 -2 0 -1 -1 -1 -2 -2 -1 -0 0 1 0 -0 -0 0 1 1 0 -1 1 1 0 -0 1 -1 -0 1 2 -1 -2
1 -1 0 -1 -1 -1 -1 -2 -1 -1 -0 -0 -0 -0 -2 0 -1 -2 -2 -2 -1 -1 -1 -0 0 -0 -0 0 -0 0 -0 -0 -0 0 -2 2 1 -0 2 1 -0 -1 -1
-0 -1 1 1 -2 -1 0 0 -0 -0 0 0 -0 -0 -1 -1 -1 -1 -2 -2 -1 -1 -1 -1 -1 -0 0 -1 0 0 0 1 0 -0 -0 0 0 -1 1 1 -1 -1 -1
1 -0 -0 -0 -1 -2 -0 -1 0 1 -1 -1 -0 -0 -0 -1 -0 -1 -1 -2 -2 -2 -1 -1 -1 -1 -0 0 1 1 2 1 0 1 -1 -0 -1 -0 -1 -1 1 -1 -0
-0 -0 0 1 -1 -1 -0 0 1 1 -0 0 -0 -0 -1 -0 -0 -0 -0 0 -1 -2 -1 -1 -0 -0 -0 -0 -0 0 0 -0 -1 -1 -1 0 1 1 -0 -0 -0 -1 -1
-1 0 0 -0 0 -1 -0 -0 -0 1 0 1 -1 -0 -0 -1 -0 -0 -0 -1 -0 -0 -1 -1 -0 -0 -0 -0 0 0 -1 -1 -0 -1 -1 -1 -0 0 0 -1 -0 -1 -1
Height
1522 1519 1515 1510 1506 1502 1498 1493 1490 1486 1483 1481 1479 1476 1472 1467 1465 1462 1459 1458 1457 1455 1453 1451 1449 1447 1445 1445 1443 1442 1441 1441 1437 1434 1436 1436 1436 1434 1434 1435 1435 1435 1435
1516 1513 1510 1506 1503 1499 1495 1491 1487 1484 1480 1477 1474 1470 1467 1463 1462 1460 1458 1456 1454 1452 1449 1446 1443 1441 1440 1438 1437 1436 1435 1434 1432 1429 1430 1429 1428 1427 1427 1427 1427 1426 1427
1513 1509 1505 1501 1499 1494 1491 1488 1485 1480 1476 1472 1470 1467 1464 1461 1459 1456 1454 1452 1450 1447 1444 1440 1438 1435 1433 1432 1431 1429 1428 1427 1426 1424 1422 1422 1420 1420 1419 1418 1419 1419 1418
1509 1505 1501 1498 1494 1490 1487 1483 1481 1479 1475 1470 1467 1464 1460 1457 1454 1452 1450 1448 1444 1441 1437 1434 1431 1429 1427 1425 1424 1422 1421 1419 1418 1417 1415 1413 1413 1413 1412 1410 1409 1410 1410
1504 1501 1496 1493 1491 1489 1487 1482 1479 1476 1472 1467 1463 1459 1455 1452 1449 1445 1444 1442 1438 1435 1432 1429 1426 1423 1418 1416 1414 1413 1412 1411 1410 1409 1407 1405 1405 1405 1404 1404 1401 1402 1401
1499 1496 1493 1492 1489 1486 1483 1480 1476 1472 1467 1463 1458 1454 1450 1448 1442 1439 1436 1434 1432 1428 1425 1422 1419 1415 1412 1409 1405 1403 1402 1401 1401 1401 1400 1398 1397 1397 1397 1396 1395 1395 1394
1496 1493 1490 1488 1485 1482 1479 1476 1472 1468 1463 1458 1454 1450 1446 1443 1437 1433 1429 1426 1423 1420 1417 1414 1411 1408 1404 1402 1400 1396 1394 1392 1392 1392 1391 1391 1390 1390 1391 1390 1389 1388 1388
1493 1490 1486 1483 1481 1478 1475 1472 1468 1463 1459 1454 1450 1446 1442 1438 1432 1426 1422 1418 1416 1413 1410 1407 1404 1401 1398 1395 1392 1390 1388 1387 1386 1384 1382 1382 1382 1383 1383 1383 1383 1382 1381
1488 1486 1482 1479 1476 1474 1471 1468 1463 1459 1454 1450 1446 1441 1437 1432 1426 1420 1415 1412 1409 1405 1402 1400 1396 1392 1390 1388 1386 1383 1381 1379 1378 1375 1375 1374 1373 1374 1375 1375 1373 1374 1372
1482 1480 1478 1475 1472 1470 1467 1463 1459 1455 1450 1446 1441 1436 1431 1426 1421 1415 1411 1407 1402 1398 1395 1392 1389 1386 1384 1382 1379 1377 1374 1372 1370 1368 1367 1365 1364 1365 1365 1365 1366 1365 1366
1478 1476 1473 1471 1468 1465 1462 1459 1455 1450 1446 1440 1436 1431 1426 1422 1416 1411 1407 1402 1398 1394 1390 1386 1384 1380 1377 1375 1373 1370 1366 1363 1361 1360 1358 1357 1357 1357 1357 1357 1357 1357 1357
1474 1472 1469 1466 1464 1461 1458 1455 1451 1446 1441 1436 1432 1427 1423 1418 1413 1407 1403 1399 1394 1389 1385 1382 1378 1374 1371 1368 1364 1362 1359 1357 1355 1353 1352 1351 1350 1350 1350 1350 1349 1350 1349
1469 1467 1464 1462 1460 1458 1454 1450 1446 1442 1437 1433 1429 1424 1419 1415 1410 1404 1399 1394 1389 1384 1381 1377 1373 1369 1366 1363 1360 1357 1355 1354 1351 1349 1348 1347 1346 1345 1344 1343 1342 1343 1343
1464 1462 1460 1458 1456 1453 1450 1447 1443 1439 1434 1431 1426 1421 1416 1411 1406 1401 1395 1390 1385 1381 1377 1374 1370 1366 1363 1360 1358 1355 1353 1351 1348 1346 1344 1343 1341 1340 1338 1337 1336 1337 1337
1460 1458 1456 1454 1452 1449 1446 1443 1439 1435 1430 1426 1423 1418 1413 1408 1403 1398 1392 1386 1382 1377 1374 1371 1368 1365 1362 1360 1357 1354 1352 1349 1347 1344 1342 1341 1339 1338 1336 1335 1334 1334 1333
1455 1454 1452 1449 1448 1445 1443 1440 1435 1431 1426 1423 1419 1414 1410 1405 1400 1394 1389 1384 1380 1376 1374 1371 1368 1364 1362 1360 1357 1353 1351 1349 1346 1344 1341 1340 1338 1336 1334 1334 1332 1332 1331
1451 1449 1448 1446 1445 1443 1440 1437 1434 1431 1424 1420 1416 1411 1406 1402 1397 1392 1387 1383 1379 1377 1374 1371 1368 1365 1363 1361 1358 1355 1352 1349 1346 1343 1341 1339 1337 1336 1334 1333 1332 1331 1330
1447 1446 1444 1443 1442 1439 1437 1434 1431 1428 1425 1422 1416 1410 1404 1399 1395 1390 1386 1383 1380 1377 1375 1372 1369 1367 1365 1362 1359 1356 1353 1350 1347 1344 1342 1339 1337 1335 1335 1333 1332 1331 1330
1444 1443 1441 1440 1438 1436 1433 1432 1429 1427 1423 1419 1415 1410 1404 1399 1394 1391 1387 1384 1381 1378 1375 1373 1371 1368 1366 1363 1360 1357 1354 1350 1347 1345 1342 1340 1337 1336 1335 1334 1332 1331 1330
1442 1440 1439 1438 1436 1434 1432 1430 1427 1425 1422 1418 1413 1408 1402 1399 1396 1392 1388 1385 1382 1379 1376 1374 1372 1369 1366 1363 1361 1358 1355 1351 1348 1346 1343 1341 1339 1337 1336 1334 1333 1332 1331
1441 1438 1436 1436 1434 1432 1429 1427 1425 1422 1419 1416 1412 1406 1401 1398 1396 1393 1390 1386 1383 1380 1377 1375 1372 1370 1367 1364 1361 1359 1357 1354 1350 1347 1345 1343 1341 1339 1338 1336 1334 1333 1332
1437 1435 1434 1433 1431 1429 1427 1424 1422 1420 1417 1414 1411 1406 1401 1399 1395 1393 1390 1387 1384 1381 1378 1375 1373 1371 1368 1365 1362 1360 1358 1355 1352 1349 1347 1345 1343 1342 1340 1337 1335 1334 1333
1434 1433 1432 1431 1428 1426 1424 1422 1420 1418 1415 1412 1409 1406 1402 1399 1395 1393 1390 1388 1385 1382 1380 1377 1374 1372 1369 1367 1364 1361 1358 1356 1353 1350 1348 1346 1345 1343 1341 1339 1337 1335 1334
1431 1430 1429 1428 1426 1423 1422 1419 1417 1415 1412 1410 1407 1404 1401 1398 1395 1393 1390 1388 1386 1383 1381 1378 1376 1374 1371 1368 1365 1363 1360 1357 1355 1352 1350 1347 1346 1344 1342 1340 1339 1337 1335
1428 1427 1426 1425 1423 1421 1419 1417 1415 1412 1410 1408 1405 1403 1399 1396 1394 1392 1390 1388 1385 1383 1381 1379 1376 1374 1372 1369 1367 1364 1361 1359 1356 1354 1351 1349 1347 1344 1342 1341 1339 1338 1335
1425 1424 1424 1422 1421 1419 1416 1414 1412 1410 1408 1406 1403 1400 1397 1395 1393 1391 1389 1387 1385 1383 1381 1379 1376 1374 1372 1369 1367 1364 1362 1359 1357 1354 1352 1350 1347 1345 1343 1341 1339 1338 1336